This is the latest recevied weather packets stored in our database for station/object K8GLX. If no packets are shown the sender has not sent any weather packets the latest 10 day(s).
| Time | Temp. | Humidity | Pressure | Rain* | Wind** | Luminosity | Snow |
|---|---|---|---|---|---|---|---|
| 1777705029 | 3.89° C | 90% | 1015.9 hPa | 0.25 mm | - | 0 W/m² | - |
| 1777704735 | 3.33° C | 90% | 1015.7 hPa | 0.25 mm | - | 0 W/m² | - |
| 1777704430 | 3.89° C | 90% | 1015.8 hPa | 0.25 mm | - | 0 W/m² | - |
| 1777704262 | 3.89° C | 90% | 1016.1 hPa | 0.25 mm | - | 0 W/m² | - |
| 1777703829 | 3.89° C | 90% | 1015.9 hPa | 0.51 mm | - | 0 W/m² | - |
| 1777703535 | 3.89° C | 90% | 1015.9 hPa | 0.51 mm | - | 0 W/m² | - |
| 1777703229 | 3.89° C | 89% | 1015.9 hPa | 0.51 mm | - | 0 W/m² | - |
| 1777702937 | 3.89° C | 89% | 1016 hPa | 0.51 mm | - | 0 W/m² | - |
| 1777702629 | 3.89° C | 89% | 1016.1 hPa | 0.51 mm | - | 0 W/m² | - |
| 1777702335 | 3.89° C | 89% | 1016.2 hPa | 0.51 mm | - | 0 W/m² | - |
| 1777702029 | 3.89° C | 89% | 1016.3 hPa | 0.51 mm | - | 0 W/m² | - |
| 1777701735 | 3.89° C | 89% | 1016.4 hPa | 0.51 mm | - | 0 W/m² | - |
| 1777701429 | 3.89° C | 89% | 1016.4 hPa | 0.51 mm | - | 0 W/m² | - |
| 1777701135 | 3.89° C | 90% | 1016.6 hPa | 0.51 mm | - | 0 W/m² | - |
| 1777700829 | 4.44° C | 90% | 1016.4 hPa | 0.51 mm | - | 0 W/m² | - |
| 1777700535 | 3.89° C | 90% | 1016.5 hPa | 0.51 mm | - | 0 W/m² | - |
| 1777700229 | 4.44° C | 90% | 1016.5 hPa | 0.51 mm | - | 0 W/m² | - |
| 1777700062 | 4.44° C | 90% | 1016.6 hPa | 0.25 mm | - | 0 W/m² | - |
| 1777699629 | 4.44° C | 89% | 1016.6 hPa | 0.25 mm | - | 0 W/m² | - |
| 1777699335 | 4.44° C | 89% | 1016.6 hPa | 0.25 mm | - | 0 W/m² | - |
| 1777699029 | 4.44° C | 88% | 1016.6 hPa | 0.25 mm | - | 0 W/m² | - |
| 1777698734 | 5° C | 85% | 1016.7 hPa | 0.25 mm | - | 0 W/m² | - |
| 1777698429 | 5° C | 80% | 1016.7 hPa | 0.51 mm | - | 0 W/m² | - |
| 1777698261 | 5° C | 79% | 1016.7 hPa | 0.51 mm | - | 0 W/m² | - |
| 1777697828 | 5° C | 78% | 1016.4 hPa | 0.51 mm | - | 0 W/m² | - |
* Rain latest hour (hover to see other rain measurements)
** Current wind speed in m/s (hover to see current wind gust speed)